GW4613 Weather Reports


Display with metric or nautical units.
time (UTC)temp
F
wind
direction
speed
MPH
gust
MPH
rain 1hr
in
rain 24hr
in
rain mn
in
humidity
%
barometer
mb
20260504081702 41 279 0.0 0.0 0.00 0.00 0.00 91 1016.1
20260504081158 41 279 0.0 0.0 0.00 0.00 0.00 91 1016.1
20260504080655 41 279 0.0 0.0 0.00 0.00 0.00 91 1016.1
20260504080152 41 282 0.0 0.0 0.00 0.00 0.00 89 1016.1
20260504070119 40 64 0.0 1.0 0.00 0.00 0.00 87 1016.4
20260504050509 39 62 0.0 0.0 0.00 0.00 0.00 87 1017.2
20260504050005 39 61 0.0 0.0 0.00 0.00 0.00 86 1017.4
20260504045502 39 62 0.0 1.0 0.00 0.00 0.00 86 1017.1
20260504044957 39 62 0.0 1.0 0.00 0.00 0.00 87 1017.2
20260504044455 38 354 0.0 0.0 0.00 0.00 0.00 87 1017.3
20260504043951 38 354 0.0 0.0 0.00 0.00 0.00 90 1017.2
20260504043448 37 257 0.0 0.0 0.00 0.00 0.00 91 1017.1
20260504042946 37 281 0.0 0.0 0.00 0.00 0.00 91 1017.2
20260504042442 37 200 0.0 0.0 0.00 0.00 0.00 91 1017.1
20260504041939 37 200 0.0 0.0 0.00 0.00 0.00 90 1017.2
20260504041435 37 237 0.0 0.0 0.00 0.00 0.00 87 1017.3
20260504040931 36 240 0.0 0.0 0.00 0.00 0.00 87 1017.4
20260504040429 37 225 0.0 0.0 0.00 0.00 0.00 86 1017.2
20260504035925 37 204 0.0 0.0 0.00 0.00 0.00 85 1017.1
20260504035423 36 268 0.0 0.0 0.00 0.00 0.00 85 1017.4
20260504034919 37 268 0.0 0.0 0.00 0.00 0.00 85 1017.1
20260504034417 37 264 0.0 0.0 0.00 0.00 0.00 86 1017.3
20260504033914 37 259 0.0 0.0 0.00 0.00 0.00 86 1017.4
20260504033411 37 254 0.0 0.0 0.00 0.00 0.00 85 1017.3
20260504032908 37 257 0.0 0.0 0.00 0.00 0.00 84 1017.0
20260504032405 37 263 0.0 0.0 0.00 0.00 0.00 83 1017.1
20260504031901 38 52 0.0 0.0 0.00 0.00 0.00 81 1017.1
20260504031359 38 50 0.0 0.0 0.00 0.00 0.00 80 1017.0
20260504030855 38 59 0.0 0.0 0.00 0.00 0.00 80 1016.8
20260504030353 39 80 0.0 0.0 0.00 0.00 0.00 80 1016.8
20260504025848 40 7 0.0 1.0 0.00 0.00 0.00 75 1017.0
20260504025345 41 331 0.0 1.0 0.00 0.00 0.00 73 1016.5
20260504024842 40 350 0.0 1.0 0.00 0.00 0.00 75 1017.1
20260504024338 40 283 0.0 0.0 0.00 0.00 0.00 78 1016.8
20260504023836 40 282 0.0 0.0 0.00 0.00 0.00 77 1017.0
20260504023333 41 298 0.0 0.0 0.00 0.00 0.00 74 1017.0
20260504022828 41 301 0.0 1.0 0.00 0.00 0.00 73 1017.0
20260504022325 41 301 1.0 1.0 0.00 0.00 0.00 74 1016.8
20260504021821 41 221 0.0 0.0 0.00 0.00 0.00 76 1017.0
20260504021319 41 211 0.0 0.0 0.00 0.00 0.00 73 1016.6
20260504020816 41 211 0.0 0.0 0.00 0.00 0.00 75 1016.5
20260504020313 41 271 0.0 0.0 0.00 0.00 0.00 77 1016.6
20260504015808 43 270 0.0 0.0 0.00 0.00 0.00 72 1016.7
20260504015305 44 207 0.0 1.0 0.00 0.00 0.00 66 1016.7
20260504014801 44 250 0.0 0.0 0.00 0.00 0.00 65 1016.5
20260504014258 44 294 2.0 2.0 0.00 0.00 0.00 65 1016.3
20260504013755 43 281 1.0 1.0 0.00 0.00 0.00 66 1016.3
20260504013253 43 280 1.0 1.0 0.00 0.00 0.00 70 1016.3
20260504012749 44 218 0.0 0.0 0.00 0.00 0.00 65 1016.1
20260504012247 44 274 0.0 0.0 0.00 0.00 0.00 63 1016.1
20260504011744 45 271 0.0 1.0 0.00 0.00 0.00 65 1016.1
20260504011240 46 245 0.0 1.0 0.00 0.00 0.00 61 1015.9
20260504010736 47 283 0.0 1.0 0.00 0.00 0.00 55 1016.0
20260504010232 48 287 0.0 0.0 0.00 0.00 0.00 53 1015.8
20260504005729 49 290 0.0 0.0 0.00 0.00 0.00 50 1015.9
20260504005226 48 320 1.0 1.0 0.00 0.00 0.00 50 1015.8
20260504004724 47 285 0.0 0.0 0.00 0.00 0.00 53 1015.8
20260504004220 48 174 0.0 0.0 0.00 0.00 0.00 54 1015.6
20260504003717 49 167 0.0 0.0 0.00 0.00 0.00 53 1015.7
20260504003214 51 167 2.0 2.0 0.00 0.00 0.00 50 1015.5
20260504002711 54 330 0.0 1.0 0.00 0.00 0.00 38 1015.5
20260504002208 54 332 1.0 2.0 0.00 0.00 0.00 38 1015.5
20260504001706 55 299 0.0 0.0 0.00 0.00 0.00 37 1015.5
20260504001203 55 285 1.0 2.0 0.00 0.00 0.00 37 1015.5
20260504000659 55 299 2.0 3.0 0.00 0.00 0.00 36 1016.0
20260504000156 55 330 1.0 4.0 0.00 0.00 0.00 36 1015.6
20260503235654 56 291 2.0 3.0 0.00 0.00 0.00 38 1015.5
20260503235151 55 310 3.0 3.0 0.00 0.00 0.00 36 1015.5
20260503234649 56 297 2.0 6.0 0.00 0.00 0.00 38 1015.6
20260503234147 57 263 5.0 7.0 0.00 0.00 0.00 33 1015.6
20260503233643 57 288 3.0 3.0 0.00 0.00 0.00 37 1015.5
20260503233139 57 305 5.0 6.0 0.00 0.00 0.00 33 1015.5
20260503232636 58 263 4.0 7.0 0.00 0.00 0.00 33 1015.6
20260503232133 59 284 3.0 3.0 0.00 0.00 0.00 33 1015.4
20260503231631 59 209 5.0 9.0 0.00 0.00 0.00 32 1015.4
20260503231127 59 240 4.0 6.0 0.00 0.00 0.00 33 1015.4
20260503230625 60 269 6.0 8.0 0.00 0.00 0.00 31 1015.3
20260503230122 61 281 2.0 3.0 0.00 0.00 0.00 31 1015.4
20260503225619 60 294 2.0 6.0 0.00 0.00 0.00 30 1015.4
20260503225118 60 345 5.0 6.0 0.00 0.00 0.00 29 1015.4
20260503224616 61 320 3.0 7.0 0.00 0.00 0.00 30 1015.3
20260503224114 61 13 2.0 2.0 0.00 0.00 0.00 30 1015.3
20260503223612 61 346 0.0 3.0 0.00 0.00 0.00 32 1015.5
20260503223107 61 244 4.0 6.0 0.00 0.00 0.00 31 1015.3
20260503222606 61 334 4.0 9.0 0.00 0.00 0.00 31 1015.3
20260503222103 61 275 7.0 8.0 0.00 0.00 0.00 33 1015.3
20260503221601 61 9 9.0 11.0 0.00 0.00 0.00 29 1015.4
20260503221059 61 315 5.0 10.0 0.00 0.00 0.00 29 1015.3
20260503220554 62 219 1.0 1.0 0.00 0.00 0.00 30 1015.5
20260503220052 61 277 4.0 4.0 0.00 0.00 0.00 32 1015.4
20260503215549 61 280 3.0 10.0 0.00 0.00 0.00 32 1015.3
20260503215045 61 332 10.0 11.0 0.00 0.00 0.00 31 1015.8
20260503214544 61 31 2.0 7.0 0.00 0.00 0.00 30 1015.4
20260503214040 61 284 2.0 4.0 0.00 0.00 0.00 30 1015.4
20260503213538 61 285 5.0 7.0 0.00 0.00 0.00 32 1015.8
20260503213035 61 224 6.0 9.0 0.00 0.00 0.00 30 1015.5
20260503212532 61 336 5.0 9.0 0.00 0.00 0.00 33 1015.4
20260503212030 61 253 8.0 14.0 0.00 0.00 0.00 31 1015.2
20260503211526 61 245 5.0 7.0 0.00 0.00 0.00 30 1015.6
20260503211022 61 243 6.0 9.0 0.00 0.00 0.00 30 1015.6
20260503210519 61 265 6.0 11.0 0.00 0.00 0.00 35 1015.8
20260503210015 61 259 6.0 10.0 0.00 0.00 0.00 32 1015.7
20260503205512 61 236 6.0 9.0 0.00 0.00 0.00 32 1015.6
20260503205008 60 305 2.0 10.0 0.00 0.00 0.00 30 1015.8
20260503204505 60 323 2.0 4.0 0.00 0.00 0.00 30 1015.7
20260503204001 60 359 3.0 10.0 0.00 0.00 0.00 30 1015.8
20260503203459 61 314 7.0 11.0 0.00 0.00 0.00 35 1015.9
20260503202955 61 255 7.0 10.0 0.00 0.00 0.00 30 1015.6
20260503202454 61 252 4.0 8.0 0.00 0.00 0.00 33 1015.8
20260503201952 60 347 4.0 9.0 0.00 0.00 0.00 31 1015.8
20260503201449 61 276 6.0 8.0 0.00 0.00 0.00 32 1016.0
20260503200947 60 286 4.0 11.0 0.00 0.00 0.00 35 1016.3
20260503200443 60 288 3.0 9.0 0.00 0.00 0.00 34 1016.1
20260503195939 60 297 11.0 16.0 0.00 0.00 0.00 33 1016.2
20260503195437 61 264 5.0 8.0 0.00 0.00 0.00 38 1016.1
20260503194933 60 354 0.0 6.0 0.00 0.00 0.00 33 1016.1
20260503194430 61 222 6.0 14.0 0.00 0.00 0.00 35 1016.2
20260503193926 60 2 5.0 11.0 0.00 0.00 0.00 30 1016.3
20260503193421 60 69 2.0 4.0 0.00 0.00 0.00 31 1016.6
20260503192917 59 333 1.0 13.0 0.00 0.00 0.00 31 1016.6
20260503192414 59 308 5.0 13.0 0.00 0.00 0.00 32 1016.6
20260503191909 60 266 14.0 18.0 0.00 0.00 0.00 30 1016.3
20260503191408 60 240 4.0 9.0 0.00 0.00 0.00 36 1016.7
20260503190903 60 236 8.0 13.0 0.00 0.00 0.00 32 1016.6
20260503190401 60 301 6.0 10.0 0.00 0.00 0.00 35 1017.0
20260503185857 60 314 4.0 10.0 0.00 0.00 0.00 36 1017.0
20260503185354 58 215 2.0 8.0 0.00 0.00 0.00 35 1016.8
20260503184854 59 87 5.0 7.0 0.00 0.00 0.00 34 1017.1
20260503184350 60 12 4.0 11.0 0.00 0.00 0.00 31 1017.4
20260503183845 59 68 5.0 15.0 0.00 0.00 0.00 32 1017.2
20260503183343 58 220 1.0 3.0 0.00 0.00 0.00 33 1017.2
20260503182840 58 303 1.0 10.0 0.00 0.00 0.00 34 1017.3
20260503182340 59 288 8.0 11.0 0.00 0.00 0.00 34 1017.3
20260503181836 59 172 4.0 9.0 0.00 0.00 0.00 34 1017.1
20260503181333 58 199 6.0 8.0 0.00 0.00 0.00 33 1017.3
20260503180829 58 312 4.0 8.0 0.00 0.00 0.00 32 1017.1
20260503180328 58 342 8.0 15.0 0.00 0.00 0.00 32 1017.2
20260503175824 59 217 0.0 7.0 0.00 0.00 0.00 31 1017.1
20260503175322 58 328 2.0 7.0 0.00 0.00 0.00 32 1017.2
20260503174817 56 227 2.0 14.0 0.00 0.00 0.00 40 1017.4
20260503174316 56 201 4.0 10.0 0.00 0.00 0.00 37 1017.5
20260503173811 57 305 6.0 8.0 0.00 0.00 0.00 34 1017.5
20260503173307 56 55 8.0 16.0 0.00 0.00 0.00 37 1017.4
20260503172804 56 311 5.0 9.0 0.00 0.00 0.00 35 1017.6
20260503172301 56 301 3.0 8.0 0.00 0.00 0.00 37 1017.8
20260503171757 56 229 6.0 7.0 0.00 0.00 0.00 33 1017.8
20260503171255 55 249 5.0 7.0 0.00 0.00 0.00 35 1017.9
20260503170752 56 309 5.0 13.0 0.00 0.00 0.00 37 1018.0
20260503170249 56 295 4.0 11.0 0.00 0.00 0.00 39 1017.8
20260503160211 53 297 9.0 11.0 0.00 0.00 0.00 40 1018.6
20260503150641 49 314 2.0 8.0 0.00 0.00 0.00 45 1019.2
20260503150137 49 249 4.0 10.0 0.00 0.00 0.00 48 1019.1
20260503131030 49 322 2.0 4.0 0.00 0.00 0.00 52 1019.0
20260503130528 47 130 1.0 3.0 0.00 0.00 0.00 54 1019.1
20260503110418 37 126 0.0 1.0 0.00 0.00 0.00 78 1018.1
20260503090320 40 268 1.0 1.0 0.00 0.00 0.00 69 1017.2